Find Starlink 32327

NORAD ID: 61641 Int'l Des: 2024-191 Owner: SPXS Country: US Constellation: starlink operational
LEOCIRCULAR

リアルタイム位置

3D地球を読み込み中...

Starlink 32327について

説明を読み込み中...

次回通過

Passes for default location (London). Set your location on the main map for personalized predictions.

高度履歴

Loading altitude history...

軌道要素

1 61641U 24191W 26121.29438076 .00000555 00000-0 29703-4 0 9996
2 61641 42.9996 217.2394 0001140 279.8752 80.1971 15.27576831 85580
Epoch: May 1, 2026 • Age: 6 hours

現在のステータス

高度 484.1 km
速度 7.63 km/s
衛星直下点 30.01°N, 168.95°W
打ち上げ日 Oct 23, 2024
運用期間 1.5 years
タイプ internet

技術仕様

分類 Payload
質量 730.00 kg
乾燥質量 700.00 kg
総質量 730.00 kg
長さ 0.30 m
直径 4.10 m
スパン 29.00 m
形状 Box + pan
製造者 SPXS
バスタイプ Starlink V2M
フェーズステータス In Orbit
所有者/国 SPXS/US

Most Searched